Flag for French Polynesia Weather past 2 weeks in Gambier Islands, French Polynesia

Now
76 °F

Mild.


Feels Like: 77 °F
Forecast: 78 / 83 °F
Wind: 2 mph from Northwest

Location: Rikitea

Current Time: Mar 31, 2015 at 2:45:07 AM

Latest Report: Mar 31, 2015 at 2:00 AM


Visibility: N/A

Pressure: 30.01 "Hg

Humidity: 91%

Dew point: 74 °F

Location of Gambier IslandsLocation

Historic Weather in Gambier Islands — Graph

°F

Gambier Islands temperature yesterday

Maximum temperature yesterday: 83 °F (at 12:00 PM)
Minimum temperature yesterday: 76 °F (at 8:00 PM)
Average temperature yesterday: 79 °F

Past Weeks' High & Low Weather Summary

 TemperatureHumidityPressure
High85 °F (Mar 21, 1:00 PM)97% (Mar 22, 6:00 PM)30.12 "Hg (Mar 22, 6:00 PM)
Low73 °F (Mar 23, 6:00 AM)62% (Mar 21, 1:00 PM)29.82 "Hg (Mar 26, 3:00 PM)
Average78 °F83%29.97 "Hg
* Reported Mar 16 1:00 AM — Mar 31 1:00 AM, Gambier Islands, Weather by CustomWeather, © 2015

Note: Actual official high and low records may vary slightly from our data, if they occured in-between our weather recording intervals... More about our weather records

Advertising

Gambier Islands weather history for previous 24 hours

 ConditionsComfort  
Time TempWeatherWind HumidityBarometerVisibility
1:00 AM
Tue, Mar 31
77 °FMild.2 mph91%30.04 "HgN/A
12:00 AM77 °FMild.1 mph90%30.06 "HgN/A
11:00 PM
Mon, Mar 30
76 °FMild.2 mph90%30.08 "HgN/A
10:00 PM76 °FMild.No wind91%30.09 "HgN/A
9:00 PM76 °FMild.1 mph91%30.07 "HgN/A
8:00 PM76 °FMild.2 mph87%30.06 "HgN/A
7:00 PM77 °FWarm.2 mph89%30.03 "HgN/A
5:00 PM79 °FScattered clouds.2 mph83%30.00 "Hg25 mi
4:00 PM81 °FScattered clouds.2 mph79%29.99 "Hg25 mi
3:00 PM81 °FPartly sunny.5 mph80%29.99 "Hg25 mi
2:00 PM81 °FOvercast.6 mph82%30.01 "Hg25 mi
1:00 PM81 °FOvercast.5 mph80%30.01 "Hg25 mi
12:00 PM83 °FOvercast.6 mph77%30.04 "Hg25 mi
11:00 AM82 °FOvercast.3 mph79%30.06 "Hg25 mi
10:00 AM81 °FOvercast.6 mph81%30.06 "Hg25 mi
9:00 AM81 °FOvercast.5 mph81%30.06 "Hg25 mi
8:00 AM80 °FOvercast.5 mph84%30.06 "Hg25 mi
7:00 AM77 °FPartly sunny.2 mph87%30.05 "Hg19 mi
6:00 AM76 °FScattered clouds.2 mph86%30.04 "Hg19 mi
5:00 AM77 °FMild.2 mph87%30.02 "HgN/A
4:00 AM77 °FMild.2 mph88%30.00 "HgN/A
3:00 AM77 °FWarm.2 mph88%30.01 "HgN/A
2:00 AM77 °FWarm.1 mph88%30.01 "HgN/A
Weather by CustomWeather, © 2015

See weather overviewHow to use our weather pages